Météo par heure à Kysucke Nove Mesto

Ce jour, 4 Août, Mercredi

Heure Température Précipitation Vent Pression Humidité
00:00 +15°C° 0.1 mm 1 m/s 729 mmHg 87%
01:00 +14°C° 0 mm 1 m/s 729 mmHg 89%
02:00 +15°C° 0 mm 1 m/s 729 mmHg 89%
03:00 +15°C° 0 mm 1 m/s 729 mmHg 89%
04:00 +15°C° 0 mm 1 m/s 729 mmHg 88%
05:00 +15°C° 0 mm 1 m/s 729 mmHg 88%
06:00 +16°C° 0 mm 1 m/s 729 mmHg 88%
07:00 +18°C° 0 mm 1 m/s 729 mmHg 87%
08:00 +19°C° 0.1 mm 1 m/s 729 mmHg 81%
09:00 +20°C° 0.1 mm 1 m/s 729 mmHg 75%
10:00 +22°C° 0.1 mm 1 m/s 729 mmHg 68%
11:00 +22°C° 0.4 mm 1 m/s 729 mmHg 69%
12:00 +22°C° 0.4 mm 1 m/s 729 mmHg 70%
13:00 +23°C° 0 mm 1 m/s 729 mmHg 70%
14:00 +23°C° 0.4 mm 1 m/s 729 mmHg 68%
15:00 +23°C° 0.4 mm 1 m/s 729 mmHg 67%
16:00 +23°C° 0.4 mm 1 m/s 729 mmHg 66%
17:00 +22°C° 0.1 mm 1 m/s 728 mmHg 72%
18:00 +21°C° 0.1 mm 1 m/s 728 mmHg 78%
19:00 +17°C° 0.1 mm 0 m/s 728 mmHg 84%
20:00 +19°C° 0 mm 1 m/s 728 mmHg 86%
21:00 +18°C° 0 mm 1 m/s 728 mmHg 88%
22:00 +16°C° 0 mm 1 m/s 728 mmHg 90%
23:00 +16°C° 0.4 mm 1 m/s 727 mmHg 92%

Demain, 5 Août, Jeudi

Heure Température Précipitation Vent Pression Humidité
00:00 +16°C° 0.4 mm 1 m/s 727 mmHg 94%
01:00 +16°C° 0.4 mm 1 m/s 727 mmHg 96%
02:00 +16°C° 0.6 mm 1 m/s 726 mmHg 97%
03:00 +16°C° 0.6 mm 1 m/s 726 mmHg 97%
04:00 +16°C° 0.6 mm 1 m/s 726 mmHg 97%
05:00 +18°C° 0.5 mm 1 m/s 725 mmHg 97%
06:00 +18°C° 0.5 mm 1 m/s 725 mmHg 97%
07:00 +18°C° 0.5 mm 1 m/s 725 mmHg 97%
08:00 +18°C° 0.4 mm 1 m/s 724 mmHg 96%
09:00 +19°C° 0.4 mm 1 m/s 724 mmHg 96%
10:00 +19°C° 0.4 mm 1 m/s 724 mmHg 95%
11:00 +19°C° 0.5 mm 1 m/s 724 mmHg 95%
12:00 +19°C° 0.5 mm 1 m/s 723 mmHg 96%
13:00 +19°C° 0.5 mm 1 m/s 723 mmHg 96%
14:00 +19°C° 0.6 mm 1 m/s 723 mmHg 96%
15:00 +19°C° 0.6 mm 1 m/s 722 mmHg 96%
16:00 +17°C° 0.6 mm 0 m/s 722 mmHg 96%
17:00 +18°C° 0.5 mm 1 m/s 722 mmHg 97%
18:00 +18°C° 0.5 mm 1 m/s 722 mmHg 97%
19:00 +18°C° 0.5 mm 1 m/s 722 mmHg 97%
20:00 +16°C° 0.2 mm 1 m/s 722 mmHg 98%
21:00 +16°C° 0.2 mm 1 m/s 722 mmHg 98%
22:00 +15°C° 0.2 mm 1 m/s 722 mmHg 98%
23:00 +15°C° 0.2 mm 1 m/s 722 mmHg 98%

Après-demain, 6 Août, Vendredi

Heure Température Précipitation Vent Pression Humidité
00:00 +15°C° 0.2 mm 1 m/s 722 mmHg 98%
01:00 +15°C° 0.2 mm 1 m/s 722 mmHg 98%
02:00 +14°C° 0.1 mm 1 m/s 722 mmHg 98%
03:00 +14°C° 0.1 mm 1 m/s 722 mmHg 98%
04:00 +14°C° 0.1 mm 1 m/s 722 mmHg 98%
05:00 +14°C° 0.2 mm 1 m/s 723 mmHg 98%
06:00 +14°C° 0.2 mm 1 m/s 723 mmHg 97%
07:00 +14°C° 0.2 mm 1 m/s 723 mmHg 97%
08:00 +15°C° 0.1 mm 1 m/s 724 mmHg 95%
09:00 +15°C° 0.1 mm 1 m/s 724 mmHg 93%
10:00 +16°C° 0.1 mm 1 m/s 724 mmHg 91%
11:00 +18°C° 0.1 mm 1 m/s 725 mmHg 86%
12:00 +19°C° 0.1 mm 1 m/s 725 mmHg 80%
13:00 +20°C° 0.1 mm 1 m/s 725 mmHg 74%
14:00 +21°C° 0.2 mm 1 m/s 725 mmHg 72%
15:00 +21°C° 0.2 mm 1 m/s 725 mmHg 70%
16:00 +21°C° 0.2 mm 1 m/s 725 mmHg 67%
17:00 +20°C° 0.1 mm 1 m/s 725 mmHg 74%
18:00 +19°C° 0.1 mm 1 m/s 725 mmHg 80%
19:00 +15°C° 0.1 mm 0 m/s 725 mmHg 87%
20:00 +16°C° 0 mm 1 m/s 725 mmHg 89%
21:00 +15°C° 0 mm 1 m/s 726 mmHg 91%
22:00 +15°C° 0 mm 1 m/s 726 mmHg 93%
23:00 +14°C° 0 mm 1 m/s 726 mmHg 94%

7 Août, Samedi

Heure Température Précipitation Vent Pression Humidité
00:00 +14°C° 0 mm 1 m/s 726 mmHg 94%
01:00 +14°C° 0 mm 1 m/s 726 mmHg 95%
02:00 +14°C° 0 mm 1 m/s 726 mmHg 95%
03:00 +14°C° 0 mm 1 m/s 727 mmHg 95%
04:00 +14°C° 0 mm 1 m/s 727 mmHg 95%
05:00 +15°C° 0 mm 1 m/s 727 mmHg 91%
06:00 +18°C° 0 mm 1 m/s 727 mmHg 87%
07:00 +19°C° 0 mm 1 m/s 727 mmHg 83%
08:00 +21°C° 0 mm 1 m/s 727 mmHg 72%
09:00 +23°C° 0 mm 2 m/s 728 mmHg 62%
10:00 +25°C° 0 mm 2 m/s 728 mmHg 52%
11:00 +26°C° 0 mm 2 m/s 728 mmHg 49%
12:00 +27°C° 0 mm 3 m/s 727 mmHg 46%
13:00 +28°C° 0 mm 3 m/s 727 mmHg 43%
14:00 +28°C° 0 mm 3 m/s 727 mmHg 44%
15:00 +28°C° 0 mm 3 m/s 727 mmHg 45%
16:00 +28°C° 0 mm 3 m/s 726 mmHg 46%
17:00 +26°C° 0 mm 2 m/s 726 mmHg 55%
18:00 +24°C° 0 mm 2 m/s 726 mmHg 64%
19:00 +21°C° 0 mm 2 m/s 726 mmHg 73%
20:00 +20°C° 0 mm 2 m/s 725 mmHg 75%
21:00 +19°C° 0 mm 2 m/s 725 mmHg 77%
22:00 +18°C° 0 mm 2 m/s 725 mmHg 78%
23:00 +18°C° 0 mm 2 m/s 725 mmHg 77%

8 Août, Dimanche

Heure Température Précipitation Vent Pression Humidité
00:00 +18°C° 0 mm 2 m/s 725 mmHg 76%
01:00 +18°C° 0 mm 2 m/s 725 mmHg 75%
02:00 +18°C° 0 mm 2 m/s 725 mmHg 73%
03:00 +18°C° 0 mm 2 m/s 726 mmHg 70%
04:00 +18°C° 0 mm 2 m/s 726 mmHg 67%
05:00 +19°C° 0 mm 2 m/s 727 mmHg 70%
06:00 +19°C° 0 mm 2 m/s 727 mmHg 73%
07:00 +19°C° 0 mm 2 m/s 728 mmHg 76%
08:00 +20°C° 0 mm 2 m/s 729 mmHg 74%
09:00 +20°C° 0 mm 2 m/s 729 mmHg 71%
10:00 +22°C° 0 mm 1 m/s 729 mmHg 69%
11:00 +24°C° 0 mm 2 m/s 729 mmHg 62%
12:00 +25°C° 0 mm 2 m/s 729 mmHg 55%
13:00 +27°C° 0 mm 2 m/s 729 mmHg 48%
14:00 +27°C° 0 mm 2 m/s 729 mmHg 47%
15:00 +27°C° 0 mm 2 m/s 729 mmHg 46%
16:00 +27°C° 0 mm 1 m/s 729 mmHg 46%
17:00 +25°C° 0 mm 1 m/s 730 mmHg 56%
18:00 +23°C° 0 mm 1 m/s 730 mmHg 65%
19:00 +21°C° 0 mm 1 m/s 730 mmHg 75%
20:00 +20°C° 0.2 mm 1 m/s 730 mmHg 80%
21:00 +19°C° 0.2 mm 1 m/s 731 mmHg 85%
22:00 +19°C° 0.2 mm 1 m/s 731 mmHg 90%
23:00 +18°C° 0.6 mm 1 m/s 732 mmHg 93%

9 Août, Lundi

Heure Température Précipitation Vent Pression Humidité
00:00 +18°C° 0.6 mm 1 m/s 732 mmHg 95%
01:00 +18°C° 0.6 mm 1 m/s 732 mmHg 97%
02:00 +16°C° 0 mm 1 m/s 732 mmHg 97%
03:00 +16°C° 0 mm 1 m/s 733 mmHg 97%
04:00 +15°C° 0 mm 1 m/s 733 mmHg 97%
05:00 +16°C° 0 mm 1 m/s 733 mmHg 93%
06:00 +16°C° 0 mm 0 m/s 733 mmHg 90%
07:00 +17°C° 0 mm 0 m/s 733 mmHg 87%
08:00 +21°C° 0 mm 1 m/s 733 mmHg 74%
09:00 +23°C° 0 mm 1 m/s 734 mmHg 61%
10:00 +25°C° 0 mm 1 m/s 734 mmHg 49%
11:00 +25°C° 0 mm 1 m/s 734 mmHg 45%
12:00 +26°C° 0 mm 1 m/s 734 mmHg 41%
13:00 +27°C° 0 mm 2 m/s 733 mmHg 36%
14:00 +27°C° 0 mm 2 m/s 733 mmHg 37%
15:00 +26°C° 0 mm 2 m/s 733 mmHg 38%
16:00 +26°C° 0 mm 3 m/s 733 mmHg 38%
17:00 +24°C° 0 mm 2 m/s 733 mmHg 48%
18:00 +22°C° 0 mm 1 m/s 733 mmHg 57%
19:00 +20°C° 0 mm 1 m/s 734 mmHg 66%
20:00 +19°C° 0 mm 1 m/s 734 mmHg 69%
21:00 +16°C° 0 mm 1 m/s 734 mmHg 72%
22:00 +15°C° 0 mm 1 m/s 734 mmHg 75%
23:00 +15°C° 0 mm 1 m/s 734 mmHg 76%
Voir plus

Nous avons besoin de votre consentement

Meteoprog et ses fournisseurs de services peuvent stocker et accéder à des données personnelles telles que des cookies, des identifiants d'appareils ou d'autres technologies similaires sur votre appareil et traiter ces données pour personnaliser le contenu et les publicités, ainsi que pour fournir des fonctionnalités de médias sociaux et analyser le trafic.

  • Stocker et/ou accéder à des informations sur votre appareil

    Des cookies, des identifiants d'appareils ou d'autres informations peuvent être stockés ou accessibles sur votre appareil aux fins indiquées ci-dessus.

  • Annonces et contenus personnalisés, mesure des annonces et des contenus, connaissance de l'audience et développement de produits

    Les annonces et le contenu peuvent être personnalisés en fonction d'un profil. D'autres données peuvent être ajoutées pour mieux personnaliser les annonces et le contenu. Les performances des publicités et du contenu peuvent être mesurées. Il est possible d'obtenir des informations sur le public qui a vu les publicités et le contenu. Ces données peuvent être utilisées pour développer ou améliorer l'expérience de l'utilisateur, les systèmes et les logiciels.

En cliquant sur "J'accepte", vous autorisez l'utilisation de cookies, des identifiants d'appareils, des balises web ou d'autres technologies similaires. Vos paramètres peuvent être modifiés dans le navigateur de votre appareil.

Dans certains cas, des intérêts légitimes peuvent être invoqués plutôt qu'un consentement. Vous pouvez en savoir plus à ce sujet dans notre Politique de confidentialité et de cookies.